Find Starlink 32367

NORAD ID: 60919 Int'l Des: 2024-154 Owner: SPXS Country: US Constellation: starlink operational
LEOCIRCULAR

リアルタイム位置

3D地球を読み込み中...

Starlink 32367について

説明を読み込み中...

次回通過

Passes for default location (London). Set your location on the main map for personalized predictions.

高度履歴

Loading altitude history...

軌道要素

1 60919U 24154S 26125.40929838 .00001564 00000-0 64921-4 0 9992
2 60919 53.1623 20.0550 0001113 94.6182 265.4946 15.30206156 95026
Epoch: May 5, 2026 • Age: 13 hours

現在のステータス

高度 475.6 km
速度 7.63 km/s
衛星直下点 22.92°N, 165.18°W
打ち上げ日 Aug 31, 2024
運用期間 1.6 years
タイプ internet

技術仕様

分類 Payload
質量 730.00 kg
乾燥質量 700.00 kg
総質量 730.00 kg
長さ 0.30 m
直径 4.10 m
スパン 29.00 m
形状 Box + pan
製造者 SPXS
バスタイプ Starlink V2M
フェーズステータス In Orbit
所有者/国 SPXS/US

Most Searched